Regional Weather Roundup
Issued by NWS Kansas City/Pleasant Hill, MO

Home | Current Version | Previous Version | Text Only | Print | Product List | Glossary On
Versions: 1 2 3 4 5 6 7 8 9 10 11 12 13 14 15 16 17 18 19 20 21 22 23 24 25 26 27 28 29 30 31 32 33 34 35 36 37 38 39 40 41 42 43 44 45 46 47 48 49 50
000
ASUS43 KEAX 010411
RWREAX

WEATHER ROUNDUP FOR EASTERN KANSAS AND NORTHWEST MISSOURI
NATIONAL WEATHER SERVICE KANSAS CITY/PLEASANT HILL MO
1100 PM CDT TUE SEP 30 2014

KSZ040-057-103>105-MOZ028-029-037-043-010500-
...KANSAS CITY METROPOLITAN AREA...

CITY           SKY/WX    TMP DP  RH WIND       PRES   REMARKS
K.C. INTL      MOCLDY    72  59  63 S9        29.79R
K.C. DOWNTOWN  MOCLDY    75  58  55 SE9       29.78S
LEES SUMMIT    CLEAR     72  59  63 SE10      29.80F
OLATHE - IXD   PTCLDY    70  60  70 S8        29.80S
OLATHE - OJC   PTCLDY    69  59  70 S10       29.79S
LAWRENCE       MOCLDY    69  60  73 SE8       29.77S

$$

MOZ001>008-011>017-020>025-030>033-038>040-044>046-053-054-010500-
...NORTHERN AND CENTRAL MISSOURI...

CITY           SKY/WX    TMP DP  RH WIND       PRES   REMARKS
ST. JOSEPH     CLOUDY    72  59  63 SE9       29.77F
MOSBY          MOCLDY    70  61  73 SE3       29.79S
WHITEMAN AFB   CLEAR     70  59  68 S9        29.82F
CLINTON        CLEAR     72  59  64 CALM      29.84R HAZE
SEDALIA        CLEAR     66  58  75 S7        29.84F
WARSAW         NOT AVBL
MARSHALL       CLEAR     66  61  82 CALM      29.85R
CHILLICOTHE      N/A     71  63  75 SE7       29.83F
MOBERLY        CLEAR     66  59  77 E6        29.87S
KIRKSVILLE     PTCLDY    64  32  30 E8        29.88S

$$

MOZ041-047>049-056>058-063>065-088>090-097-010500-
...EASTERN AND SOUTHERN MISSOURI...

CITY           SKY/WX    TMP DP  RH WIND       PRES   REMARKS
ST. LOUIS INTL CLEAR     69  59  70 SE6       29.91R
SPIRIT OF STL  CLEAR    N/A N/A N/A CALM      29.89R
COLUMBIA       CLEAR     69  58  67 SE9       29.86F
JEFFERSON CITY CLEAR     65  59  81 SE6       29.86S
MEXICO         CLEAR     66  64  94 E6        29.88
HANNIBAL       CLEAR     66  55  68 E9        29.89S
ROLLA          CLEAR     65  53  65 S7        29.89S
LEBANON        CLEAR     66  54  63 SE3       29.90S
OSAGE BEACH    CLEAR     66  55  68 SE5       29.87F
SPRINGFIELD    CLEAR     67  55  65 SE9       29.87S
BRANSON        CLEAR     66  55  68 SE5       29.89S
NEVADA         CLEAR     66  59  77 S7        29.84S HAZE
JOPLIN         CLEAR     70  59  68 S10       29.84R
WEST PLAINS    CLEAR     59  54  83 CALM      29.92S

$$

IAZ060-094-KSZ022-034>040-054-083-096-NEZ052-066-093-010500-
...KANSAS...SOUTHEAST NEBRASKA AND IOWA...

CITY           SKY/WX    TMP DP  RH WIND       PRES   REMARKS
TOPEKA         MOCLDY    75  62  64 S15       29.76R
MANHATTAN      LGT RAIN  74  64  71 S12G21    29.72R
EMPORIA        MOCLDY    72  62  71 SE16      29.76S
CHANUTE        PTCLDY    72  62  71 S13       29.80F
WICHITA        CLOUDY    76  62  62 SE22G31   29.71S
OMAHA          LGT RAIN  66  63  90 NW6       29.82R
LINCOLN        LGT RAIN  65  63  93 SE15      29.75F
FALLS CITY     LGT RAIN  66  64  93 NE7       29.75F
DES MOINES     CLOUDY    66  57  72 SE10      29.84F

$$




USA.gov is the U.S. government's official web portal to all federal, state and local government web resources and services.